Regional Weather Roundup
Issued by NWS Jackson, KY

Home | Current Version | Previous Version | Text Only | Print | Product List | Glossary On
Versions: 1 2 3 4 5 6 7 8 9 10 11 12 13 14 15 16 17 18 19 20 21 22 23 24 25 26 27 28 29 30 31 32 33 34 35 36 37 38 39 40 41 42 43 44 45 46 47 48 49 50
657
ASUS43 KJKL 100710
RWRJKL

EAST KENTUCKY HOURLY WEATHER ROUNDUP
NATIONAL WEATHER SERVICE JACKSON KY
200 AM EST SAT DEC 10 2016

NOTE: "FAIR" INDICATES FEW OR NO CLOUDS BELOW 12,000 FEET WITH
NO SIGNIFICANT WEATHER AND/OR OBSTRUCTIONS TO VISIBILITY.

* THESE REPORTS ARE NOT UNDER NWS QUALITY CONTROL AND MAY NOT
  REPORT WEATHER SUCH AS PRECIPITATION AND FOG.

KYZ079-080-083-085-087-088-110-112-115-119-120-100800
...EASTERN KENTUCKY...

CITY           SKY/WX    TMP DP  RH WIND       PRES   REMARKS
JACKSON        CLEAR     17  13  84 CALM      30.50S
LONDON         CLEAR     16  12  84 CALM      30.53R
SOMERSET*      CLEAR     16  14  93 CALM      30.57S
MONTICELLO*    CLEAR     10   7  87 CALM      30.56F
MIDDLESBORO*   CLEAR     17  15  93 CALM      30.53S
HARLAN APT*    MOSUNNY   18  16  93 CALM      30.50R
PIKE CO APT*   MOCLDY    20  15  83 CALM      30.49R
BIG SANDY APT* CLOUDY    22  14  72 CALM      30.51S
MOREHEAD APT*  PTSUNNY   21  12  68 SW3       30.55R
ASHLAND*       CLOUDY    21  12  68 CALM      30.54R
$$

KYZ035-036-041-042-044-050-067-078-099-100800
...CENTRAL KENTUCKY...

CITY           SKY/WX    TMP DP  RH WIND       PRES   REMARKS
MT STERLING*   CLEAR     18  14  86 W3        30.55S
FLEMING/MASON* CLOUDY    17  12  81 SW6       30.56R WCI   8
DANVILLE*      PTCLDY    16  14  93 CALM      30.56R
LEXINGTON      CLOUDY    22  15  75 W3        30.55R
FRANKFORT      CLEAR     17  11  77 CALM      30.55S
LOUISVILLE     MOCLDY    24  12  60 W3        30.57F
LEBANON*         N/A     18  14  86 CALM      30.57R
GLASGOW*       CLEAR     17  15  93 CALM      30.58S
BOWLING GREEN  CLEAR     19  14  81 CALM      30.60R
$$

KYZ091>093-OHZ055-061-077-WVZ005-015-034-035-042-100800
...SOUTHERN OHIO/WEST VIRGINIA...

CITY           SKY/WX    TMP DP  RH WIND       PRES   REMARKS
COVINGTON      PTCLDY    19  15  84 SW5       30.52F WCI  12
COLUMBUS       CLOUDY    24  16  71 W9        30.48R WCI  14
DAYTON         CLOUDY    22  19  89 SW7       30.50R WCI  13
WILMINGTON     CLOUDY    21  16  81 SW9       30.50R WCI  11
HUNTINGTON     CLOUDY    24  12  60 S5        30.53R WCI  18
CHARLESTON     CLOUDY    23  13  65 SW6       30.51R WCI  16
PINEVILLE*       N/A     23  11  61 MISG      30.50S
BECKLEY        CLOUDY    17   9  70 W7        30.40R WCI   8
BLUEFIELD      CLOUDY    15   9  76 W6        30.38R WCI   6
LOGAN CO APT*  CLOUDY    21  12  68 CALM      30.46S
$$

VAZ002-007-008-TNZ017-027-036-066-071-100800
...SOUTHWEST VIRGINIA/EAST TENNESSEE...

CITY           SKY/WX    TMP DP  RH WIND       PRES   REMARKS
WISE*          PTCLDY    18  12  79 CALM      30.40F
ABINGDON*      CLEAR     17  13  84 CALM      30.44S
BRISTOL        CLEAR     18  13  80 CALM      30.49S
MORRISTOWN*    SUNNY     19  16  86 CALM      30.49R
SEVIERVILLE*   SUNNY     18  14  86 CALM      30.52R
KNOXVILLE      CLEAR     25  16  68 NE5       30.52S WCI  19
OAK RIDGE      CLEAR     23  17  78 CALM      30.55R
CROSSVILLE     CLEAR     16  14  92 CALM      30.48S
NASHVILLE      CLEAR     23  16  74 CALM      30.58F
$$

...KEY TO REMARKS...
VSB - VISIBILITY IN MILES
WCI - WIND CHILL INDEX
HX  - HEAT INDEX

$$




USA.gov is the U.S. government's official web portal to all federal, state and local government web resources and services.